Madisonville, KY

4:23 AM CDT on August 18, 2017 (GMT -0500)
Madisonville

Weather History for K2I0 - September, 2014

Change the Weather History Date:

Friday, September 12, 2014

  Actual Average (KOWB) Record (KOWB)
Temperature  
Mean Temperature 64 °F -  
Max Temperature 66 °F 82 °F 95 °F (1936)
Min Temperature 61 °F 59 °F 39 °F (1940)
Degree Days  
Heating Degree Days 2    
Growing Degree Days 14 (Base 50)    
Moisture  
Dew Point 59 °F    
Average Humidity 86    
Maximum Humidity 98    
Minimum Humidity 78    
Precipitation  
Precipitation 0.00 in - - ()
Sea Level Pressure  
Sea Level Pressure 30.16 in    
Wind  
Wind Speed 7 mph (NNE)    
Max Wind Speed 10 mph    
Max Gust Speed -    
Visibility 10 miles    
Events      
Averages and records for this station are not official NWS values.
T = Trace of Precipitation, MM = Missing Value Source: NWS Daily Summary

Daily Weather History Graph

Daily Weather History Graph

Search for Another Location

Airport or City:

Trip Planner

Search our weather history database for the weather conditions in past years. The results will help you decide how hot, cold, wet, or windy it might be!

Date:

Astronomy

Sep. 12, 2014 Rise Set
Actual Time 6:29 AM CDT 7:01 PM CDT
Civil Twilight 6:02 AM CDT 7:28 PM CDT
Nautical Twilight 5:31 AM CDT 7:58 PM CDT
Astronomical Twilight 5:00 AM CDT 8:30 PM CDT
Moon 9:28 PM CDT (9/12) 10:26 AM CDT (9/12)
Length of Visible Light 13h 25m
Length of Day
12h 32m
Waning Gibbous, 83% of the Moon is Illuminated
Sep 12
Waning Gibbous
Sep 15
Last Quarter
Sep 24
New
Oct 1
First Quarter
Oct 8
Full

Hourly Weather History & Observations

Time (CDT) Temp. Dew Point Humidity Pressure Visibility Wind Dir Wind Speed Gust Speed Precip Events Conditions
12:15 AM 63.1 °F 60.3 °F 90% 30.16 in 10.0 mi North 6.9 mph - N/A   Overcast
12:35 AM 63.0 °F 60.1 °F 90% 30.16 in 10.0 mi NNE 4.6 mph - N/A   Overcast
12:55 AM 62.8 °F 59.9 °F 90% 30.16 in 10.0 mi NNE 5.8 mph - N/A   Overcast
1:15 AM 62.8 °F 59.7 °F 90% 30.16 in 10.0 mi NNE 8.1 mph - N/A   Overcast
1:35 AM 62.6 °F 59.5 °F 90% 30.16 in 10.0 mi NNE 8.1 mph - N/A   Overcast
1:55 AM 62.6 °F 59.4 °F 89% 30.15 in 10.0 mi NNE 10.4 mph - N/A   Overcast
2:15 AM 62.6 °F 59.5 °F 90% 30.15 in 10.0 mi NNE 6.9 mph - N/A   Overcast
2:35 AM 62.6 °F 59.4 °F 89% 30.15 in 10.0 mi NNE 8.1 mph - N/A   Overcast
2:55 AM 62.2 °F 59.4 °F 90% 30.14 in 10.0 mi NNE 9.2 mph - N/A   Overcast
3:15 AM 62.2 °F 59.5 °F 91% 30.15 in 10.0 mi NNE 6.9 mph - N/A   Overcast
3:35 AM 62.2 °F 59.5 °F 91% 30.16 in 10.0 mi NNE 4.6 mph - N/A   Overcast
3:55 AM 62.2 °F 59.2 °F 90% 30.15 in 10.0 mi NE 6.9 mph - N/A   Overcast
4:15 AM 62.1 °F 58.8 °F 89% 30.15 in 10.0 mi NE 8.1 mph - N/A   Overcast
4:35 AM 61.9 °F 58.3 °F 88% 30.16 in 10.0 mi NNE 8.1 mph - N/A   Overcast
4:55 AM 61.7 °F 58.3 °F 89% 30.16 in 10.0 mi NNE 5.8 mph - N/A   Overcast
5:15 AM 61.7 °F 58.5 °F 89% 30.16 in 10.0 mi NE 6.9 mph - N/A   Overcast
5:35 AM 61.3 °F 58.5 °F 90% 30.17 in 10.0 mi NNE 6.9 mph - N/A   Overcast
5:55 AM 61.3 °F 58.6 °F 91% 30.17 in 10.0 mi NNE 6.9 mph - N/A   Overcast
6:15 AM 61.2 °F 58.8 °F 92% 30.17 in 10.0 mi NNE 3.5 mph - N/A   Overcast
6:35 AM 61.0 °F 58.6 °F 92% 30.18 in 10.0 mi NNE 5.8 mph - N/A   Overcast
6:55 AM 61.2 °F 58.5 °F 91% 30.17 in 10.0 mi NE 6.9 mph - N/A   Overcast
7:15 AM 61.2 °F 58.5 °F 91% 30.18 in 10.0 mi NE 6.9 mph - N/A   Overcast
7:35 AM 61.7 °F 58.6 °F 90% 30.17 in 10.0 mi NE 8.1 mph - N/A   Overcast
7:55 AM 61.9 °F 58.3 °F 88% 30.17 in 10.0 mi NE 6.9 mph - N/A   Overcast
8:15 AM 62.1 °F 58.1 °F 87% 30.18 in 10.0 mi NE 9.2 mph - N/A   Overcast
8:35 AM 62.4 °F 58.1 °F 86% 30.18 in 10.0 mi NE 6.9 mph - N/A   Overcast
8:55 AM 62.6 °F 58.3 °F 86% 30.18 in 10.0 mi NE 6.9 mph - N/A   Overcast
9:15 AM 63.1 °F 58.1 °F 84% 30.18 in 10.0 mi NE 4.6 mph - N/A   Overcast
9:35 AM 63.5 °F 58.3 °F 83% 30.19 in 10.0 mi ENE 5.8 mph - N/A   Overcast
9:55 AM 63.7 °F 58.3 °F 83% 30.18 in 10.0 mi NE 6.9 mph - N/A   Overcast
10:15 AM 64.8 °F 58.6 °F 81% 30.18 in 10.0 mi NE 8.1 mph - N/A   Overcast
10:35 AM 64.4 °F 58.5 °F 81% 30.18 in 10.0 mi NE 8.1 mph - N/A   Overcast
10:55 AM 64.9 °F 58.5 °F 79% 30.18 in 10.0 mi ENE 6.9 mph - N/A   Overcast
11:15 AM 65.5 °F 58.6 °F 79% 30.18 in 10.0 mi NE 8.1 mph - N/A   Overcast
11:35 AM 65.5 °F 58.8 °F 79% 30.17 in 10.0 mi NNE 6.9 mph - N/A   Overcast
11:55 AM 66.0 °F 58.8 °F 78% 30.17 in 10.0 mi NE 8.1 mph - N/A   Overcast
12:15 PM 65.7 °F 59.0 °F 79% 30.17 in 10.0 mi NNE 5.8 mph - N/A   Overcast
12:35 PM 66.0 °F 59.2 °F 79% 30.17 in 10.0 mi NE 5.8 mph - N/A   Overcast
12:55 PM 65.8 °F 59.2 °F 79% 30.17 in 10.0 mi NNE 8.1 mph - N/A   Overcast
1:15 PM 66.0 °F 59.2 °F 79% 30.16 in 10.0 mi North 8.1 mph - N/A   Overcast
1:35 PM 66.2 °F 59.4 °F 79% 30.16 in 10.0 mi NNE 8.1 mph - N/A   Overcast
1:55 PM 66.7 °F 59.5 °F 78% 30.16 in 10.0 mi NNE 8.1 mph - N/A   Overcast
2:15 PM 66.2 °F 59.5 °F 79% 30.15 in 10.0 mi NNE 4.6 mph - N/A   Overcast
2:35 PM 66.2 °F 59.7 °F 80% 30.15 in 10.0 mi North 6.9 mph - N/A   Overcast
2:55 PM 66.2 °F 59.5 °F 79% 30.14 in 10.0 mi NNE 6.9 mph - N/A   Overcast
3:15 PM 66.0 °F 59.4 °F 79% 30.13 in 10.0 mi NE 5.8 mph - N/A   Overcast
3:35 PM 66.0 °F 59.4 °F 79% 30.13 in 10.0 mi NNE 8.1 mph - N/A   Overcast
3:55 PM 65.7 °F 59.4 °F 80% 30.13 in 10.0 mi NNE 9.2 mph - N/A   Overcast
4:15 PM 65.7 °F 59.4 °F 80% 30.13 in 10.0 mi North 8.1 mph - N/A   Overcast
4:35 PM 65.5 °F 59.7 °F 82% 30.12 in 10.0 mi NNE 6.9 mph - N/A   Overcast
4:55 PM 65.7 °F 59.5 °F 81% 30.12 in 10.0 mi NE 6.9 mph - N/A   Overcast
5:15 PM 65.5 °F 59.7 °F 82% 30.13 in 10.0 mi NE 5.8 mph - N/A   Overcast
5:35 PM 65.3 °F 59.7 °F 82% 30.12 in 10.0 mi NNE 4.6 mph - N/A   Overcast
5:55 PM 65.3 °F 59.9 °F 83% 30.13 in 10.0 mi North 5.8 mph - N/A   Overcast
6:15 PM 65.3 °F 60.1 °F 83% 30.13 in 10.0 mi North 5.8 mph - N/A   Overcast
6:35 PM 64.9 °F 59.9 °F 84% 30.14 in 10.0 mi North 5.8 mph - N/A   Overcast
6:55 PM 64.6 °F 60.3 °F 86% 30.14 in 10.0 mi North 3.5 mph - N/A   Overcast
7:15 PM 64.4 °F 60.1 °F 86% 30.14 in 10.0 mi North 6.9 mph - N/A   Overcast
7:35 PM 64.4 °F 59.9 °F 85% 30.14 in 10.0 mi NNE 8.1 mph - N/A   Overcast
7:55 PM 63.9 °F 60.3 °F 88% 30.16 in 10.0 mi North 8.1 mph - N/A   Overcast
8:15 PM 63.5 °F 60.4 °F 90% 30.17 in 10.0 mi North 4.6 mph - N/A   Overcast
8:35 PM 63.0 °F 61.0 °F 93% 30.17 in 10.0 mi Calm Calm - N/A   Overcast
8:55 PM 63.0 °F 61.5 °F 95% 30.18 in 7.0 mi North 4.6 mph - N/A   Overcast
9:15 PM 62.2 °F 61.3 °F 97% 30.18 in 4.0 mi North 5.8 mph - N/A   Overcast
9:35 PM 62.1 °F 61.5 °F 98% 30.18 in 5.0 mi Calm Calm - N/A   Overcast
9:55 PM 62.6 °F 61.2 °F 95% 30.18 in 7.0 mi NW 4.6 mph - N/A   Overcast
10:15 PM 62.8 °F 60.4 °F 92% 30.18 in 10.0 mi North 8.1 mph - N/A   Overcast
10:35 PM 62.2 °F 59.9 °F 92% 30.18 in 10.0 mi NNW 6.9 mph - N/A   Overcast
10:55 PM 62.1 °F 60.3 °F 94% 30.18 in 10.0 mi North 5.8 mph - N/A   Overcast
11:15 PM 62.1 °F 60.3 °F 94% 30.18 in 7.0 mi NNW 5.8 mph - N/A   Overcast
11:35 PM 61.9 °F 60.1 °F 94% 30.18 in 10.0 mi NNW 6.9 mph - N/A   Overcast
11:55 PM 61.2 °F 60.1 °F 96% 30.18 in 7.0 mi NNW 6.9 mph - N/A   Overcast